www.pogodaiklimat.ru

Погода и климат >> Архив погоды >> Норвегия >> Маяк Utsira


ПОГОДА на Маяке Utsira

  • Прогноз погоды на Маяке Utsira
  • Монитор погоды на Маяке Utsira

АРХИВ ПОГОДЫ на Маяке Utsira

Время (UTC), дата Ветер
(напр.,м/с)
 
Видим.   Явления Облачность Т
(С)
Тd
(С)
f
(%)
Тe
(С)
Тes
(С)
Комфортность P
(гПа)
Po
(гПа)
Тmin
(С)
Tmax
(С)
R
(мм)
R24
(мм)
S
(см)
07 9.06 ЮЗ 8
{11}
н/о н/о +10.8 +10.2 96 +7 +7 1008.0 1001.2
08 9.06 ЮЗ 8
{11}
н/о н/о +10.9 +10.3 96 +7 +7 1008.9 1002.1
09 9.06 ЮЗ 8
{10}
6000 м дымка {дождь, туман} 10/10 200 м
[St]
+10.8 +10.2 96 +7 +7 1009.9 1003.1
10 9.06 ЮЗ 7
{10}
н/о н/о +10.9 +10.3 96 +7 +7 1010.8 1004.0
11 9.06 ЮЗ 8
{10}
н/о н/о +10.9 +10.3 96 +7 +7 1011.5 1004.7
12 9.06 ЮЗ 11
{13}
3000 м дождь {туман} 10/0 50 м
[As op]
+10.7 +10.1 96 +6 +6 1012.0 1005.2
13 9.06 ЮЗ 12
{15}
н/о н/о +10.4 +9.8 96 +6 +6 1012.9 1006.1
14 9.06 ЮЗ 13
{17}
н/о н/о +10.5 +9.7 95 +6 +6 1013.6 1006.8
15 9.06 ЮЗ 12
{16}
8000 м дымка {дождь} 10/9 300 м
[Sc]
+10.5 +9.3 92 +6 +6 1014.3 1007.5
16 9.06 ЮЗ 11
{16}
н/о н/о +10.7 +9.3 91 +6 +6 1014.8 1008.0
17 9.06 ЮЗ 11
{15}
н/о н/о +10.5 +8.9 90 +6 +6 1015.3 1008.5
18 9.06 ЮЗ 13
{17}
1500 м дымка {дождь} 10/10 200 м
[St]
+10.1 +8.9 92 +5 +5 1016.1 1009.3 +10.1 +11.0
19 9.06 З 11
{15}
н/о н/о +10.1 +9.0 93 +5 +5 1016.8 1010.0
20 9.06 З 8
{13}
н/о н/о +10.1 +8.9 92 +6 +6 1017.6 1010.7
21 9.06 ЮЗ 8
{10}
25 км {морось} 10/9 300 м
[Sc]
+10.1 +8.7 91 +6 +6 1018.3 1011.4
22 9.06 ЮЗ 8
{10}
н/о н/о +9.9 +8.2 89 +6 +6 1018.6 1011.7
23 9.06 ЮЗ 7
{10}
н/о н/о +10.0 +8.3 89 +6 +6 1018.9 1012.0
00 10.06 ЮЗ 7
{15}
н/о н/о +10.0 +8.3 89 +6 +6 1019.2 1012.3
01 10.06 ЮЗ 6
{9}
н/о н/о +9.9 +8.2 89 +6 +6 1019.2 1012.3
02 10.06 ЮЗ 6
{9}
н/о н/о +9.9 +8.2 89 +6 +6 1019.2 1012.3
03 10.06 ЮЗ 4
{7}
н/о н/о +9.9 +8.2 89 +7 +7 1019.1 1012.2
04 10.06 ЮЗ 4
{5}
н/о н/о +10.1 +8.7 91 +7 +7 1019.4 1012.5
05 10.06 Ю 4
{6}
н/о н/о +10.2 +8.8 91 +7 +7 1019.3 1012.4
06 10.06 Ю 4
{9}
25 км 10/1 300 м
[St Ac As]
+10.3 +8.9 91 +8 +8 1019.5 1012.6 +9.9 +10.3
07 10.06 Ю 5
{6}
н/о н/о +10.5 +8.9 90 +7 +7 1019.8 1012.9
08 10.06 Ю 5
{7}
н/о н/о +10.6 +9.0 90 +8 +8 1020.2 1013.3
09 10.06 Ю 5
{7}
20 км в посл. час ливневой дождь 8/4 600 м
[Cb cap Ac As Cs]
+11.3 +9.7 90 +9 +11 1020.2 1013.4
10 10.06 Ю 6
{8}
н/о н/о +12.0 +9.7 86 +9 +9 1020.3 1013.5
11 10.06 ЮЗ 6
{8}
н/о н/о +12.3 +10.0 86 +10 +10 1020.5 1013.7
12 10.06 ЮЗ 5
{8}
30 км {ливн. осадки} 3/1 1000 м
[Cu hum Ac trans Ci sp]
+12.5 +9.7 83 +10 +16 1020.4 1013.6
13 10.06 ЮЗ 6
{8}
н/о н/о +12.3 +9.5 83 +10 +10 1020.7 1013.9
14 10.06 ЮЗ 5
{7}
н/о н/о +11.7 +8.7 82 +9 +9 1020.6 1013.8
15 10.06 ЮЗ 4
{7}
40 км 3/1 1000 м
[Cu hum Ac trans]
+11.8 +8.7 81 +10 +14 1020.6 1013.8
16 10.06 ЮЗ 3
{5}
н/о н/о +12.0 +9.0 82 +10 +10 1020.7 1013.9
17 10.06 З 3
{5}
н/о н/о +11.9 +8.8 81 +10 +10 1020.7 1013.9
18 10.06 З 2
{8}
30 км 1/1 1000 м
[Cu hum]
+11.6 +8.5 81 +10 +12 1020.6 1013.8 +10.3 +13.0
19 10.06 СЗ 3
{3}
н/о н/о +11.2 +8.4 83 +9 +9 1020.8 1014.0
20 10.06 С 2
{3}
н/о н/о +10.7 +8.5 86 +9 +9 1021.2 1014.3
21 10.06 С 3
{4}
25 км 8/6 600 м
[Cu med, cong Cs]
+10.4 +8.7 89 +8 +8 1021.5 1014.6
22 10.06 С 4
{5}
н/о н/о +10.2 +8.1 87 +8 +8 1021.5 1014.6
23 10.06 С 4
{5}
н/о н/о +10.4 +8.3 87 +8 +8 1021.3 1014.4
00 11.06 С 4
{6}
н/о н/о +10.0 +7.9 87 +7 +7 1021.4 1014.5
01 11.06
{6}
н/о н/о +9.8 +7.6 86 1020.6 1013.7
02 11.06
{7}
н/о н/о +9.7 +7.7 87 1020.4 1013.5
03 11.06 С 5
{8}
н/о н/о +9.6 +7.7 88 +6 +6 1020.5 1013.6
04 11.06 С 6
{8}
н/о н/о +9.9 +8.0 88 +6 +6 1020.4 1013.5
05 11.06 С 6
{8}
н/о н/о +10.3 +8.1 86 +7 +7 1020.6 1013.7
06 11.06 С 6
{9}
55 км 1/1 1000 м
[Cu hum]
+10.6 +8.2 85 +7 +8 1020.4 1013.5 +9.6 +11.6
07 11.06 С 7
{9}
н/о н/о +11.1 +8.5 84 +8 +8 1020.3 1013.5
08 11.06 С 8
{10}
н/о н/о +11.6 +9.2 85 +8 +8 1020.6 1013.8
09 11.06 С 8
{10}
55 км 1/0
[]
+12.0 +9.2 83 +9 +11 1020.4 1013.6
10 11.06 С 8
{10}
н/о н/о +12.5 +9.5 82 +9 +9 1020.2 1013.4
11 11.06 С 9
{11}
н/о н/о +12.7 +9.5 81 +9 +9 1019.9 1013.1
12 11.06 С 8
{11}
40 км 1/0
[Ci fib]
+13.1 +9.9 81 +10 +13 1019.4 1012.6
13 11.06 С 8
{10}
н/о н/о +13.4 +10.0 80 +11 +11 1019.4 1012.6
14 11.06 С 8
{10}
н/о н/о +13.6 +9.8 78 +11 +11 1019.1 1012.3
15 11.06 С 8
{10}
30 км 6/0
[Ac cast Cs]
+13.5 +9.2 75 +11 +12 1019.1 1012.3
16 11.06 С 9
{10}
н/о н/о +13.5 +9.4 76 +11 +11 1018.8 1012.0
17 11.06 С 8
{10}
н/о н/о +13.5 +9.2 75 +11 +11 1018.5 1011.7
18 11.06 СВ 9
{12}
30 км 9/0 2000 м
[Ac As Cs]
+14.0 +8.4 69 +11 +12 1018.3 1011.5 +10.6 +14.0
19 11.06 СВ 7
{12}
н/о н/о +13.8 +8.6 71 +12 +12 1018.2 1011.4
20 11.06 СВ 6
{10}
н/о н/о +13.2 +9.7 79 +11 +11 1018.1 1011.3
21 11.06 СВ 6
{8}
30 км 8/0
[Ac cast Cs]
+13.7 +9.9 78 +12 +12 1018.2 1011.4
22 11.06 В 6
{7}
н/о н/о +14.6 +9.2 70 +13 +13 1017.8 1011.1
23 11.06 В 7
{10}
н/о н/о +16.6 +7.3 54 +15 +15 1018.0 1011.3
00 12.06 В 11
{14}
н/о н/о +16.2 +7.9 58 +14 +14 1018.0 1011.3
01 12.06 В 10
{14}
н/о н/о +15.7 +7.5 58 +14 +14 1017.7 1011.0
02 12.06 н/о
03 12.06 В 7
{13}
н/о н/о +14.7 +7.8 63 +13 +13 1018.2 1011.5
04 12.06 В 5
{13}
н/о н/о +14.2 +8.4 68 +13 +13 1018.1 1011.3
05 12.06 В 5
{8}
н/о н/о +14.3 +8.5 68 +13 +13 1018.0 1011.2
06 12.06 В 4
{14}
30 км {дождь} 10/6 600 м
[St Ac As Cs]
+14.7 +8.6 67 +14 +14 1017.8 1011.1 +13.1 +16.7
07 12.06 В 5
{7}
н/о н/о +14.5 +8.5 67 +13 +13 1017.8 1011.0
08 12.06 В 5
{9}
н/о н/о +13.7 +8.8 72 +12 +12 1018.7 1011.9
09 12.06 В 6
{10}
30 км в посл. час дождь 10/10 600 м
[St]
+14.8 +8.3 65 +13 +13 1018.4 1011.7
10 12.06 СВ 4
{6}
н/о н/о +14.9 +8.2 64 +14 +14 1018.1 1011.4
11 12.06 С 3
{7}
н/о н/о +15.4 +9.3 67 +15 +15 1017.3 1010.6
12 12.06 С 6
{10}
40 км {дождь} 10/0 2000 м
[Ac As]
+14.2 +10.2 77 +12 +14 1016.9 1010.1
13 12.06 С 6
{8}
н/о н/о +13.9 +9.6 75 +12 +12 1016.8 1010.0
14 12.06 С 6
{9}
н/о н/о +14.0 +9.7 75 +12 +12 1016.4 1009.6
15 12.06 С 7
{9}
40 км 9/0
[Ac As]
+14.3 +10.1 76 +12 +13 1015.7 1009.0
16 12.06 С 6
{8}
н/о н/о +13.7 +9.6 76 +12 +12 1015.0 1008.2
17 12.06 С 7
{8}
н/о н/о +13.3 +9.9 80 +11 +11 1014.2 1007.4
18 12.06 С 6
{9}
30 км 10/5 1500 м
[Sc Ac As Cs]
+13.2 +10.0 81 +11 +11 1013.3 1006.5 +15.6
19 12.06 С 5
{7}
н/о н/о +13.0 +9.6 80 +11 +11 1013.1 1006.3
20 12.06 СВ 5
{7}
н/о н/о +12.6 +10.2 85 +10 +10 1012.4 1005.6
21 12.06 В 4
{6}
30 км в посл. час дождь 10/0
[Ac As]
+12.9 +9.9 82 +11 +11 1012.1 1005.3
22 12.06 В 4
{5}
н/о н/о +13.1 +9.6 79 +11 +11 1010.9 1004.2
23 12.06 В 3
{6}
н/о н/о +12.9 +9.5 80 +12 +12 1010.2 1003.5
00 13.06 В 4
{7}
н/о н/о +12.4 +9.8 84 +10 +10 1008.9 1002.2
01 13.06 В 3
{6}
н/о н/о +11.7 +10.1 90 +10 +10 1008.1 1001.3
02 13.06 СВ 3
{4}
н/о н/о +11.6 +10.4 92 +10 +10 1006.9 1000.2
03 13.06 СВ 3
{4}
н/о н/о +11.6 +10.5 93 +10 +10 1006.1 999.4
04 13.06 В 3
{4}
н/о н/о +11.7 +10.8 94 +10 +10 1005.8 999.1
05 13.06 В 3
{5}
н/о н/о +11.6 +10.5 93 +10 +10 1005.4 998.7
06 13.06 В 3
{6}
6000 м слаб. морось {дождь} 10/9 300 м
[Frnb As op]
+11.7 +10.8 94 +10 +10 1005.2 998.5 +11.5 +13.3
07 13.06 В 4
{5}
н/о н/о +11.7 +10.8 94 +9 +9 1005.1 998.4
08 13.06 В 4
{6}
н/о н/о +11.8 +10.9 94 +10 +10 1005.1 998.4
09 13.06 ЮВ 5
{7}
4000 м слаб. морось 10/9 200 м
[Frnb As op]
+11.9 +11.0 94 +9 +9 1005.1 998.4
10 13.06 Ю 13
{17}
н/о н/о +12.4 +11.5 94 +8 +8 1005.3 998.6
11 13.06 Ю 12
{19}
н/о н/о +12.4 +11.1 92 +8 +8 1005.9 999.2
12 13.06 Ю 12
{19}
12 км {морось} 10/8 300 м
[Sc As trans]
+12.5 +10.6 88 +9 +9 1006.4 999.7
13 13.06 Ю 14
{19}
н/о н/о +13.0 +10.5 85 +9 +9 1007.0 1000.3
14 13.06 Ю 14
{20}
н/о н/о +13.1 +10.1 82 +9 +9 1007.3 1000.6
15 13.06 Ю 15
{21}
20 км 4/0
[Ac cast Cc]
+13.5 +9.9 79 +10 +10 1007.5 1000.8
16 13.06 Ю 11
{19}
н/о н/о +13.5 +9.9 79 +10 +10 1007.8 1001.1
17 13.06 Ю 10
{16}
н/о н/о +12.5 +9.7 83 +9 +9 1008.1 1001.4
18 13.06 Ю 12
{21}
5000 м в посл. час ливневой дождь 9/5 300 м
[Cb cap Ac As]
+13.1 +11.0 87 +9 +9 1008.4 1001.7 +11.6 +13.6
19 13.06 Ю 12
{17}
н/о н/о +12.7 +10.9 89 +9 +9 1009.0 1002.3
20 13.06 Ю 13
{18}
н/о н/о +12.6 +10.8 89 +9 +9 1009.3 1002.6
21 13.06 Ю 12
{17}
15 км 9/9 600 м
[Sc]
+12.7 +10.6 87 +9 +9 1010.2 1003.5
22 13.06 Ю 12
{19}
н/о н/о +12.4 +10.3 87 +8 +8 1010.9 1004.1
23 13.06 Ю 11
{17}
н/о н/о +12.4 +10.1 86 +9 +9 1011.3 1004.5
00 14.06 ЮВ 10
{19}
н/о н/о +12.6 +9.8 83 +9 +9 1011.3 1004.5
01 14.06 ЮВ 9
{13}
н/о н/о +12.7 +9.2 79 +10 +10 1011.1 1004.4
02 14.06 ЮВ 8
{12}
н/о н/о +13.0 +8.9 76 +10 +10 1011.2 1004.5
03 14.06 ЮВ 8
{13}
н/о н/о +12.6 +9.1 79 +10 +10 1011.6 1004.8
04 14.06 ЮВ 9
{12}
н/о н/о +12.9 +9.0 77 +10 +10 1011.4 1004.7
05 14.06 ЮВ 9
{12}
н/о н/о +13.4 +9.1 75 +11 +11 1011.7 1005.0
06 14.06 ЮВ 9
{13}
25 км {ливн. осадки} 9/5 600 м
[Cb cap Ac inh]
+13.3 +9.2 76 +10 +10 1011.9 1005.2 +12.3 +13.5
07 14.06 ЮВ 9
{13}
н/о н/о +14.5 +9.9 74 +12 +12 1012.0 1005.3
08 14.06 ЮВ 10
{13}
н/о н/о +15.0 +10.0 72 +13 +13 1012.7 1006.0
09 14.06 Ю 10
{14}
30 км 5/4 600 м
[Sc Ci fib]
+14.5 +11.3 81 +12 +12 1013.5 1006.8
10 14.06 Ю 10
{15}
н/о н/о +14.2 +11.2 82 +11 +11 1014.1 1007.4
11 14.06 Ю 10
{14}
н/о н/о +14.5 +11.1 80 +12 +12 1014.4 1007.7
12 14.06 Ю 10
{15}
40 км 6/0 2000 м
[Ac trans Cs]
+15.1 +10.7 75 +13 +13 1014.5 1007.8
13 14.06 Ю 11
{15}
н/о н/о +14.3 +10.1 76 +11 +11 1015.1 1008.4
14 14.06 Ю 11
{16}
н/о н/о +13.8 +10.6 81 +11 +11 1015.2 1008.4
15 14.06 Ю 11
{15}
25 км 9/0
[Ac As Cs]
+13.4 +10.6 83 +10 +10 1015.3 1008.5
16 14.06 Ю 9
{16}
н/о н/о +13.2 +10.7 85 +10 +10 1015.6 1008.8
17 14.06 Ю 11
{14}
н/о н/о +13.8 +10.4 80 +11 +11 1015.7 1008.9
18 14.06 Ю 9
{16}
25 км 8/4 1000 м
[Sc Ac As Cs]
+13.6 +11.0 84 +11 +11 1015.9 1009.1 +13.0 +15.4
19 14.06 Ю 10
{12}
н/о н/о +13.3 +11.0 86 +10 +10 1016.3 1009.5
20 14.06 Ю 10
{13}
н/о н/о +12.8 +10.9 88 +9 +9 1016.8 1010.0
21 14.06 Ю 8
{12}
25 км 8/1 1000 м
[Cu med, cong Ac As Cs]
+12.7 +10.6 87 +10 +10 1017.2 1010.4
22 14.06 Ю 8
{11}
н/о н/о +12.4 +10.5 88 +9 +9 1017.5 1010.7
23 14.06 Ю 7
{10}
н/о н/о +12.4 +10.3 87 +9 +9 1017.7 1010.9
00 15.06 Ю 7
{13}
н/о н/о +12.4 +10.5 88 +9 +9 1017.8 1011.0
01 15.06 ЮВ 5
{10}
н/о н/о +12.3 +10.2 87 +10 +10 1017.7 1010.9
02 15.06 ЮВ 5
{7}
н/о н/о +11.9 +9.5 85 +9 +9 1017.5 1010.7
03 15.06 В 4
{6}
н/о н/о +11.4 +9.7 89 +9 +9 1017.3 1010.5
04 15.06 В 4
{6}
н/о н/о +12.1 +9.8 86 +10 +10 1017.0 1010.2
05 15.06 В 4
{6}
н/о н/о +12.7 +9.7 82 +11 +11 1017.0 1010.2
06 15.06 В 4
{10}
40 км 10/6 1000 м
[Sc]
+13.6 +9.8 78 +12 +12 1016.8 1010.0 +11.3 +13.6
07 15.06 В 5
{6}
н/о н/о +14.7 +9.5 71 +13 +13 1016.8 1010.1
08 15.06 В 4
{6}
н/о н/о +16.5 +10.1 66 +16 +16 1016.6 1009.9
09 15.06 СВ 3
{5}
55 км 3/0
[]
+17.3 +10.0 62 +17 +25 1016.3 1009.6
10 15.06 СВ 3
{4}
н/о н/о +17.1 +10.3 64 +17 +17 1015.8 1009.1
11 15.06 С 4
{5}
н/о н/о +18.0 +9.9 59 +18 +18 1015.5 1008.8
12 15.06
{7}
55 км 9/0
[Cs]
+17.5 +10.9 65 1014.9 1008.2
13 15.06 С 7
{9}
н/о н/о +17.1 +10.3 64 +16 +16 1014.8 1008.1
14 15.06 С 7
{9}
н/о н/о +16.0 +10.5 70 +15 +15 1014.2 1007.5
15 15.06 С 7
{9}
40 км 10/1 1000 м
[Sc Ac As Cs]
+15.0 +10.2 73 +13 +14 1013.6 1006.9
16 15.06 С 6
{9}
н/о н/о +14.4 +10.4 77 +13 +13 1012.8 1006.1
17 15.06 С 5
{8}
н/о н/о +13.8 +10.8 82 +12 +12 1012.7 1006.0
18 15.06 С 5
{9}
6000 м слаб. дождь 10/3 600 м
[Frnb As op]
+13.8 +10.6 81 +12 +12 1012.8 1006.1 +13.6 +18.1
19 15.06 СВ 4
{9}
н/о н/о +13.4 +11.1 86 +12 +12 1012.5 1005.8
20 15.06 СВ 5
{7}
н/о н/о +13.2 +11.4 89 +11 +11 1012.0 1005.3
21 15.06 СВ 5
{7}
8000 м слаб. дождь 10/5 600 м
[Frnb As op]
+13.0 +11.4 90 +11 +11 1011.9 1005.2
22 15.06 В 5
{9}
н/о н/о +13.8 +12.4 91 +12 +12 1011.5 1004.8
23 15.06 ЮВ 5
{8}
н/о н/о +14.7 +13.3 91 +13 +13 1011.5 1004.8
00 16.06 В 6
{9}
н/о н/о +14.7 +12.9 89 +13 +13 1010.8 1004.1
01 16.06 ЮВ 5
{7}
н/о н/о +14.7 +12.2 85 +13 +13 1010.6 1003.9
02 16.06 Ю 7
{8}
н/о н/о +13.5 +11.6 88 +11 +11 1010.6 1003.9
03 16.06 Ю 7
{10}
н/о н/о +13.0 +11.7 92 +10 +10 1010.6 1003.9
04 16.06 Ю 7
{12}
н/о н/о +12.1 +11.0 93 +9 +9 1011.0 1004.2
05 16.06 ЮЗ 7
{10}
н/о н/о +11.7 +10.8 94 +8 +8 1011.5 1004.7
06 16.06 ЮЗ 6
{12}
8000 м дымка {дождь} 10/10 300 м
[St]
+11.8 +10.9 94 +9 +9 1012.3 1005.5 +11.6 +14.8
07 16.06 ЮЗ 4
{7}
н/о н/о +11.9 +11.1 95 +10 +10 1012.8 1006.0

 

Местоположение метеостанции Маяк Utsira (Норвегия): широта 59.31 долгота 4.88 высота над уровнем моря 55 м.

В архиве по умолчанию представлена погода на Маяке Utsira за последнюю неделю. Архивные данные за месяц целиком и за предыдущие месяцы, начиная с января 2011 года, Вы можете получить, выбрав интересующий диапазон дат из раскрывающегося списка и нажав кнопку "Ввод!".


*Определитесь, кто Вы:
робот инопланетянин человек

Внимание! Время в таблицах - всемирное. Для получения местного времени необходимо прибавить поправку, которая равна 1 ч.

Смотрите также архив погоды в соседних городах и на ближайших метеорологических станциях:

Погода в Роваере (Норвегия) (18 км)
Погода в Аэропорту Haugesund (Норвегия) (19 км)
Погода в Квитсёй (Норвегия) (41 км)
Погода в Недре Ватс (Норвегия) (52 км)
Погода в Ставангере (Норвегия) (62 км)
Погода в Ставангер аэропорту (Норвегия) (65 км)
Погода в Фистере (Норвегия) (67 км)
Погода на Маяке Slatteroy (Норвегия) (68 км)
Погода в Сархейме (Норвегия) (75 км)
Погода на Лярватне (Норвегия) (76 км)

Пояснения к столбцам:

Ветер - указаны скорость ветра в м/с - средняя за 10 мин, порывы в срок и между сроками (в фигурных скобках) и направление, откуда дует ветер: С - северный, СВ - северо-восточный, В - восточный, ЮВ - юго-восточный, Ю - южный, ЮЗ - юго-западный, З - западный, СЗ - северо-западный.
Видимость - горизонтальная дальность видимости в метрах или километрах. При видимости от 1 до 10 км при отсутствии осадков обычно наблюдается дымка, при ухудшении видимости до 1 км и менее - туман. В сухую погоду видимость может ухудшаться дымом, пылью или мглою.
Явления - указаны атмосферные явления, наблюдавшиеся в срок или в последний час перед сроком; фигурными скобками обозначены явления, наблюдавшиеся между сроками (за 1-3 часа до срока); квадратными скобками обозначены град или гололедные отложения с указанием их диаметра в мм.
Облачность - указаны через наклонную черту общая и нижняя облачность в баллах и высота нижней границы облаков в метрах; квадратными скобками обозначены формы облаков: Ci - перистые, Cs - перисто-слоистые, Cc - перисто-кучевые, Ac - высококучевые, As - высокослоистые, Sc - слоисто-кучевые, Ns - слоисто-дождевые, Cu - кучевые, Cb - кучево-дождевые. Подробнее классификацию облаков см. в Атласе облаков (PDF).
T - Температура воздуха - температура, измеренная на высоте 2 м над землей.
Td - Температура точки росы - температура, при понижении до которой содержащийся в воздухе водяной пар достигнет насыщения.
f - Относительная влажность воздуха - влажноcть воздуха, измеренная на высоте 2 м над землей.
Te - Эффективная температура - температура, которую ощущает одетый по сезону человек в тени. Характеристика душности погоды. При расчете учитывается влияние влажности воздуха и скорости ветра на теплоощущения человека.
Tes - Эффективная температура на солнце - температура, которую ощущает человек, с поправкой на солнечный нагрев. Характеристика знойности погоды. Зависит от высоты солнца над горизонтом, облачности и скорости ветра. Ночью, в пасмурную погоду, а также при ветре 12 м/с и более поправка равна нулю.
P - Атмосферное давление - приведенное к уровню моря атмосферное давление.
Po - Атмосферное давление - измеренное на уровне метеостанции атмосферное давление.
Tmin - Минимальная температура - минимум температуры воздуха на высоте 2 м над землей.
Tmax - Максимальная температура - максимум температуры воздуха на высоте 2 м над землей.
R - Количество осадков - Количество выпавших осадков за период времени, мм. При наведении курсора мыши на число - период времени, за который выпало указанное количество осадков.
R24 - Количество осадков - Количество выпавших осадков за 24 часа, мм.
S - Снежный покров - Высота снежного покрова, см. При наведении курсора мыши на число - состояние снежного покрова и степень покрытия местности в баллах.